Change the Weather History Date:

Tuesday, January 1, 2013

  Actual Average Record
Temperature  
Mean Temperature 26 °F -  
Max Temperature 35 °F 36 °F 59 °F (1966)
Min Temperature 16 °F 16 °F -13 °F (1964)
Degree Days  
Heating Degree Days 40    
Moisture  
Dew Point 15 °F    
Average Humidity 56    
Maximum Humidity 70    
Minimum Humidity 43    
Precipitation  
Precipitation 0.00 in - - ()
Sea Level Pressure  
Sea Level Pressure 29.82 in    
Wind  
Wind Speed 10 mph (West)    
Max Wind Speed 22 mph    
Max Gust Speed 34 mph    
Visibility 10 miles    
Events      
Averages and records for this station are not official NWS values.
T = Trace of Precipitation, MM = Missing Value Source: NWS Daily Summary

Daily Weather History Graph

Daily Weather History Graph

Search for Another Location

Airport or City:

Trip Planner

Search our weather history database for the weather conditions in past years. The results will help you decide how hot, cold, wet, or windy it might be!

Date:

Astronomy

Jan. 01, 2013 Rise Set
Actual Time 7:14 AM EST 4:23 PM EST
Civil Twilight 6:42 AM EST 4:55 PM EST
Nautical Twilight 6:07 AM EST 5:30 PM EST
Astronomical Twilight 5:33 AM EST 6:04 PM EST
Moon 8:57 PM EST (1/1) 9:20 AM EST (1/1)
Length of Visible Light 10h 12m
Length of Day
9h 08m
Waning Gibbous, 83% of the Moon is Illuminated
Jan 1
Waning Gibbous
Jan 4
Last Quarter
Jan 11
New
Jan 18
First Quarter
Jan 26
Full

Hourly Weather History & Observations

Time (EST) Temp. Windchill Dew Point Humidity Pressure Visibility Wind Dir Wind Speed Gust Speed Precip Events Conditions
12:56 AM 32.0 °F 26.4 °F 21.2 °F 64% 29.73 in 10.0 mi SW 5.8 mph - N/A   Overcast
1:56 AM 33.1 °F 26.9 °F 23.0 °F 66% 29.78 in 10.0 mi SW 6.9 mph - N/A   Overcast
2:56 AM 34.0 °F 27.2 °F 23.0 °F 64% 29.77 in 10.0 mi SW 8.1 mph - N/A   Overcast
3:56 AM 34.0 °F 26.6 °F 24.1 °F 67% 29.75 in 10.0 mi SW 9.2 mph - N/A   Overcast
4:56 AM 33.8 °F 27.7 °F 24.8 °F 70% 29.71 in 10.0 mi SW 6.9 mph - N/A   Overcast
5:56 AM 35.1 °F 28.6 °F 25.0 °F 67% 29.77 in 10.0 mi WSW 8.1 mph - N/A   Overcast
6:56 AM 33.8 °F 25.8 °F 24.8 °F 70% 29.73 in 10.0 mi SW 10.4 mph - N/A   Overcast
7:56 AM 35.1 °F 27.9 °F 24.1 °F 64% 29.78 in 10.0 mi West 9.2 mph - N/A   Overcast
8:56 AM 35.6 °F 24.2 °F 15.8 °F 44% 29.76 in 9.0 mi West 21.9 mph 34.5 mph N/A   Clear
9:56 AM 35.1 °F 23.5 °F 16.0 °F 46% 29.82 in 10.0 mi WNW 21.9 mph 28.8 mph N/A   Clear
10:56 AM 33.8 °F 22.8 °F 15.8 °F 48% 29.77 in 10.0 mi WNW 18.4 mph 33.4 mph N/A   Clear
11:56 AM 33.1 °F 21.2 °F 14.0 °F 46% 29.80 in 10.0 mi WNW 20.7 mph 26.5 mph N/A   Clear
12:56 PM 33.1 °F 23.9 °F 12.9 °F 43% 29.79 in 10.0 mi West 12.7 mph 24.2 mph N/A   Scattered Clouds
1:56 PM 32.0 °F 20.5 °F 12.0 °F 44% 29.79 in 10.0 mi West 18.4 mph 27.6 mph N/A   Scattered Clouds
2:56 PM 30.9 °F 20.2 °F 12.0 °F 46% 29.79 in 10.0 mi West 15.0 mph - N/A   Scattered Clouds
3:56 PM 30.2 °F 18.9 °F 12.2 °F 47% 29.76 in 10.0 mi West 16.1 mph 24.2 mph N/A   Clear
4:56 PM 28.9 °F 18.2 °F 12.0 °F 49% 29.83 in 10.0 mi WNW 13.8 mph 23.0 mph N/A   Clear
5:56 PM 28.0 °F 19.3 °F 12.0 °F 51% 29.86 in 10.0 mi West 9.2 mph - N/A   Clear
6:56 PM 24.1 °F 19.7 °F 10.9 °F 57% 29.90 in 10.0 mi NNW 3.5 mph - N/A   Clear
7:56 PM 21.9 °F 14.5 °F 8.1 °F 55% 29.92 in 10.0 mi North 5.8 mph - N/A   Clear
8:56 PM 21.0 °F 9.9 °F 7.0 °F 55% 29.93 in 10.0 mi NW 10.4 mph - N/A   Clear
9:56 PM 18.0 °F 11.1 °F 5.0 °F 57% 29.94 in 10.0 mi NW 4.6 mph - N/A   Clear
10:56 PM 16.0 °F 7.4 °F 3.9 °F 59% 29.97 in 10.0 mi NW 5.8 mph - N/A   Clear
11:56 PM 16.0 °F 6.3 °F 3.0 °F 57% 29.96 in 10.0 mi NW 6.9 mph - N/A   Clear